Location: Asheville, NC
(35.6000°N, 82.5500°W)
Time: 20:10:47

Vanguard 3 - Pass Details

Date: 08 December 2017
Orbit: 507 x 3265 km, 33.4° (Epoch: 22 March)

Event Time Altitude Azimuth Distance (km) Brightness Sun altitude
Rises 19:53:01 0° 272° (W) 3,404 11.5 -31.0°
Reaches altitude 10° 19:55:22 10° 261° (W) 2,725 10.7 -31.4°
Maximum altitude 20:01:11 31° 200° (SSW) 2,173 9.4 -32.6°
Enters shadow 20:07:03 18° 155° (SSE) 3,433 10.1 -33.8°
Drops below altitude 10° 20:10:30 10° 145° (SE) 4,438 - -34.5°
Sets 20:15:34 0° 137° (SE) 5,936 - -35.5°
